GFSGL_sfc_rhum_021.txt.gz
RH
86 90 90 94 94 95 95 94 92 91 89 89 87 85 88 88 91 94 95 94 95 95 95 96 96 94 98 98 99 98 98 98 97 100 100 99 99 98 98 98 97 97 97
90 93 94 94 94 94 94 91 91 89 90 86 83 81 77 86 91 94 92 94 95 95 94 95 94 97 98 98 99 99 99 97 95 98 100 99 98 98 97 98 98 97 97
89 94 95 94 93 93 92 90 88 86 83 79 77 80 89 91 92 94 95 95 95 95 94 94 96 98 99 99 99 99 98 92 89 96 99 98 98 98 98 97 97 96 96
85 93 93 93 86 93 91 85 84 83 79 80 84 89 94 95 97 97 97 97 97 97 96 94 97 97 96 98 97 95 90 91 93 96 98 99 98 98 96 97 98 97 99
85 87 90 91 87 92 88 86 83 82 75 78 89 93 93 94 93 97 96 96 97 98 96 98 98 96 96 94 93 94 90 91 93 97 99 99 99 99 98 97 98 98 99
78 87 88 87 88 84 86 86 85 83 75 85 87 91 93 89 100 100 98 98 98 98 98 99 98 96 96 96 94 92 84 85 93 95 98 98 96 98 97 96 98 98 99
72 81 77 87 85 82 82 81 86 80 79 91 94 93 93 96 100 100 100 98 99 97 98 98 98 96 94 92 95 94 95 91 87 81 94 91 96 89 90 97 94 93 96
71 80 82 82 78 73 74 84 91 91 94 93 94 92 92 97 100 100 100 98 98 98 98 95 96 97 93 89 88 94 88 94 94 92 86 87 82 86 80 80 92 95 90
77 78 79 75 75 82 86 92 94 94 96 95 93 92 91 98 100 100 100 98 97 98 95 95 95 93 100 98 89 96 97 99 99 98 98 96 98 97 88 83 94 91 94
73 70 74 73 77 84 89 93 94 94 95 98 96 92 96 98 100 100 100 97 96 98 98 96 100 94 100 98 88 91 97 98 92 92 92 95 94 95 90 87 82 89 92
66 70 72 76 80 87 93 93 95 95 98 98 96 96 96 98 99 100 100 98 98 97 97 97 97 100 100 100 96 87 92 86 92 86 91 97 97 97 96 96 93 80 93
66 69 73 83 76 85 92 95 96 97 98 99 98 99 99 99 100 100 100 100 100 94 96 95 98 100 100 100 99 100 97 90 84 85 87 94 96 98 97 96 94 93 88
71 79 82 82 86 94 95 97 98 98 99 99 99 98 100 99 99 100 100 100 100 98 95 99 100 100 100 100 100 100 98 88 88 90 95 97 96 97 97 96 95 92 93
78 85 90 91 94 94 96 98 98 99 99 99 99 99 99 99 100 99 99 99 100 98 99 98 99 100 100 99 99 98 91 96 84 87 96 98 98 98 98 98 98 98 96
79 84 90 92 94 96 97 98 97 96 98 98 99 98 99 100 99 100 99 98 99 97 98 98 98 98 98 98 99 98 98 97 93 97 97 98 97 97 97 98 97 98 96
82 82 87 88 96 96 97 94 91 91 98 100 100 99 97 100 100 100 100 100 100 100 97 98 99 98 98 97 95 99 98 98 97 96 96 97 97 97 97 98 96 96 96
76 85 88 88 93 93 91 90 87 84 94 96 100 100 100 100 100 100 100 99 100 100 99 99 94 96 95 94 89 92 97 96 96 95 93 96 96 97 98 98 98 96 95
77 92 80 82 82 90 84 80 79 75 78 95 100 100 100 100 100 100 100 99 98 98 97 97 98 98 95 88 88 95 97 98 98 97 97 97 97 96 97 97 97 96 96
76 81 79 83 80 81 84 80 74 72 76 95 97 99 99 100 100 100 100 90 88 92 96 97 96 96 97 97 97 96 96 96 94 97 97 97 96 94 93 92 96 100 99
73 79 79 81 88 90 90 83 76 72 74 88 95 96 99 98 99 100 99 97 91 91 94 95 96 95 96 96 96 93 94 97 96 94 93 92 91 90 89 90 91 94 97
73 77 76 71 79 77 80 83 76 73 72 75 80 93 100 88 90 94 97 96 95 88 92 91 95 94 89 89 92 91 88 86 85 85 86 86 87 90 85 84 87 90 88
80 70 73 65 66 69 74 74 84 78 71 68 68 81 100 94 88 87 88 91 88 86 84 84 83 85 84 85 81 80 80 81 81 82 81 78 81 84 84 87 88 90 92
69 76 70 70 67 73 78 76 73 76 76 72 69 69 94 87 85 84 84 82 85 85 86 87 83 81 79 79 78 76 76 73 70 72 74 75 75 78 81 83 84 88 92
83 78 78 84 70 69 71 73 74 80 69 72 73 70 75 75 76 78 77 77 80 81 81 84 81 78 76 77 74 73 71 69 72 72 72 72 73 77 74 77 77 80 80
92 90 88 88 85 92 84 72 70 68 63 66 68 70 69 70 70 69 72 73 75 76 78 78 78 76 78 76 71 69 73 85 71 76 69 73 73 75 73 72 74 79 84
86 85 89 88 88 90 88 86 80 73 67 57 57 64 68 69 67 67 67 69 72 72 72 72 73 74 72 70 69 73 82 82 78 80 62 60 66 67 70 72 76 75 84

GFSGL_sfc_rhum_024.txt.gz
RH
88 88 88 91 91 92 92 93 92 90 90 89 86 85 85 87 90 94 94 92 91 93 94 94 92 92 96 97 98 96 96 95 90 100 99 99 99 99 99 98 98 98 97
86 87 90 92 92 95 94 91 89 89 87 85 84 79 77 82 88 90 90 90 91 92 92 92 91 93 93 95 98 97 96 95 82 98 99 99 98 99 98 98 99 97 96
86 88 92 93 92 94 92 90 88 87 85 79 76 78 85 85 87 92 95 91 91 91 91 91 91 94 96 96 98 98 97 92 91 95 99 99 99 98 98 98 98 98 97
87 89 91 92 90 93 90 88 86 83 80 78 86 87 90 92 94 97 94 96 94 93 92 91 91 93 93 96 96 96 94 95 95 97 98 99 98 98 96 98 99 97 98
87 89 91 91 89 89 87 84 85 83 76 87 88 89 89 90 90 97 92 93 96 96 96 94 95 92 94 94 87 94 91 90 93 97 98 99 99 99 97 97 96 98 99
88 87 88 89 87 88 88 86 85 82 86 86 86 87 90 86 100 100 98 97 97 96 98 98 96 95 96 96 95 92 87 89 92 95 97 97 97 98 97 97 97 97 99
84 84 80 88 85 84 84 84 84 85 88 90 91 87 87 91 100 100 100 97 98 98 97 98 97 94 93 91 97 96 96 90 88 84 94 90 96 96 94 96 94 96 98
81 82 80 82 82 81 81 85 87 91 92 92 92 87 87 96 100 100 100 96 98 98 97 97 97 97 93 89 90 93 92 89 90 86 89 91 85 93 92 85 92 92 88
82 80 81 78 81 82 85 90 92 95 95 93 90 86 87 98 100 100 98 97 97 98 96 96 93 92 100 99 91 96 97 98 99 98 99 100 100 99 93 83 82 81 86
78 77 78 75 77 83 89 91 93 93 93 94 91 88 97 97 100 100 98 97 98 98 98 95 99 95 100 99 90 94 97 98 91 92 96 98 96 98 95 84 76 78 80
71 74 77 78 81 86 90 90 94 95 96 95 93 93 95 98 98 100 100 96 96 95 95 96 96 100 100 100 95 86 93 88 93 89 94 97 96 90 81 81 79 71 72
70 74 77 82 76 83 90 92 93 97 97 97 96 97 97 98 100 100 100 100 99 90 93 94 97 100 100 100 96 100 98 90 85 89 93 96 87 84 84 78 88 82 76
76 80 79 78 84 88 92 95 94 96 96 98 95 96 97 97 98 100 100 100 100 95 89 98 100 100 100 99 100 98 95 83 82 84 84 88 83 81 87 90 84 82 84
78 83 83 80 90 91 88 90 92 95 96 94 94 96 96 97 98 98 97 97 99 97 98 97 99 100 100 98 94 90 79 80 81 82 84 86 86 86 86 84 86 84 76
81 83 87 86 88 92 92 92 88 91 91 92 93 90 94 96 96 98 97 94 94 96 97 97 95 94 96 95 90 87 84 81 81 84 83 83 80 79 82 87 83 81 74
82 84 86 85 88 89 90 88 93 97 100 100 100 94 90 97 100 100 100 100 100 100 97 97 98 95 95 94 89 90 87 89 83 78 78 74 72 73 79 85 80 81 80
79 85 86 88 86 88 88 86 84 84 97 100 100 100 100 100 100 100 100 100 100 99 95 97 97 95 94 89 87 86 83 79 81 71 70 73 72 73 89 80 80 78 78
82 93 80 81 81 82 82 82 78 75 75 85 99 100 100 100 100 100 100 99 98 95 86 90 92 92 90 85 81 81 84 85 81 79 77 74 77 73 79 79 79 80 80
80 82 79 80 80 81 79 75 72 70 71 82 91 98 98 100 100 100 100 86 92 88 88 87 81 83 84 79 79 80 85 83 81 81 79 77 75 74 74 70 70 96 91
77 91 89 80 82 82 78 72 69 69 70 76 82 86 96 96 97 96 95 84 82 82 82 83 85 84 84 86 84 85 87 91 85 82 79 78 76 75 72 71 71 72 82
75 77 92 80 82 78 77 75 71 68 65 66 74 86 100 81 82 88 95 84 78 74 77 77 78 78 79 82 83 84 84 81 80 79 77 77 77 79 77 74 73 73 74
75 73 76 74 77 78 78 74 75 70 65 62 62 78 100 85 79 80 83 83 79 76 71 73 71 72 72 74 78 79 79 78 78 76 77 75 75 76 74 75 75 76 76
77 75 75 72 71 84 79 76 76 74 70 66 61 64 86 80 79 78 79 78 80 79 76 76 73 71 68 72 71 71 73 72 71 70 72 71 70 71 71 73 72 73 74
87 82 81 78 78 68 70 75 74 86 72 70 72 68 66 68 71 73 76 75 76 76 76 78 76 73 74 74 69 68 66 64 64 65 68 68 67 72 66 67 67 70 71
90 91 93 93 86 82 81 75 69 69 68 69 70 71 67 68 66 66 66 70 74 74 76 75 74 74 75 75 71 70 76 94 73 75 65 63 66 68 66 64 67 69 74
89 92 94 94 94 94 91 90 92 87 84 78 70 65 68 68 66 66 66 67 69 69 70 71 71 73 72 72 71 79 95 96 88 94 67 66 68 67 65 67 66 65 70

GFSGL_sfc_rhum_030.txt.gz
RH
58 61 62 61 61 60 61 62 63 65 62 58 55 56 54 56 59 69 69 66 69 72 62 64 67 66 55 49 49 74 91 88 87 86 82 86 83 84 74 82 84 90 91
55 58 61 59 59 62 62 62 60 59 54 50 48 47 47 50 59 60 60 56 66 75 63 60 60 56 63 68 81 75 73 81 80 80 95 97 97 86 91 92 96 94 91
53 56 61 62 63 64 63 60 55 54 50 46 46 46 45 48 53 60 61 63 80 70 64 59 58 64 69 72 78 72 66 79 80 74 98 98 100 98 98 98 98 98 98
47 52 58 61 61 61 59 56 52 48 49 48 47 43 47 52 54 59 69 66 68 66 63 58 56 60 65 71 70 68 75 83 73 85 98 98 98 99 98 98 99 98 99
43 47 55 56 56 54 54 52 51 49 46 44 46 49 53 57 48 63 64 68 80 75 69 59 60 70 88 77 64 71 78 78 76 87 96 98 98 99 98 98 98 98 99
42 46 48 49 50 55 57 56 53 50 49 48 50 48 58 45 100 100 93 77 71 71 70 67 75 84 89 92 94 90 84 75 81 82 93 96 98 98 98 98 94 98 99
41 43 45 48 49 52 49 50 52 58 59 61 57 52 58 66 99 100 100 85 82 81 82 83 69 70 80 75 95 94 94 92 81 77 91 88 92 90 93 93 86 87 94
40 42 44 43 47 48 46 49 58 58 68 70 61 59 63 73 100 100 100 85 90 91 84 79 73 79 78 73 75 76 72 71 76 68 81 85 87 87 81 80 87 96 91
39 44 41 38 43 46 46 56 60 68 70 68 58 61 67 78 100 100 97 92 96 96 92 83 74 80 97 94 69 82 90 93 96 92 93 97 100 99 92 74 88 90 95
42 40 36 37 40 44 50 55 59 63 62 48 59 66 92 78 100 100 94 92 94 94 96 84 98 93 100 99 77 83 93 92 84 92 95 98 97 98 91 82 80 85 79
34 36 38 41 45 48 54 59 57 58 54 63 63 70 80 84 92 100 100 86 89 89 90 90 89 100 100 100 92 79 90 86 95 89 90 93 96 95 89 77 72 60 60
34 36 41 47 40 47 58 62 57 60 67 69 70 68 77 82 99 99 100 98 93 77 88 89 97 100 100 100 90 100 100 91 85 87 89 90 90 81 68 67 72 63 55
37 42 45 46 43 49 63 69 71 74 65 70 61 64 74 84 90 100 100 100 97 80 84 97 100 100 100 98 100 99 97 81 83 84 84 79 64 61 68 69 75 60 58
42 45 48 48 50 52 52 54 71 76 73 62 56 59 69 90 93 88 85 81 93 82 95 96 97 91 91 87 85 87 71 68 67 68 69 63 60 64 67 62 60 53 44
43 49 48 50 49 57 61 69 67 70 75 66 59 47 63 84 87 92 87 76 66 81 80 77 77 75 76 75 76 79 68 67 61 61 62 60 57 53 50 46 43 41 38
43 40 37 40 43 41 48 56 98 95 100 100 100 71 58 91 100 100 100 100 100 100 71 63 62 63 65 63 67 67 60 71 69 62 55 47 44 42 41 42 38 37 37
39 41 36 41 37 37 44 49 60 81 100 100 100 100 100 99 100 100 100 100 100 96 66 60 59 58 59 59 52 51 50 58 51 43 43 43 42 41 45 40 37 35 35
37 66 31 30 33 32 35 42 42 54 55 63 92 90 98 100 100 100 100 98 87 83 70 63 57 52 50 50 48 43 44 46 44 42 42 42 41 39 39 37 36 39 37
34 31 30 30 30 36 31 34 37 40 53 51 62 82 92 100 100 100 100 77 76 73 62 64 53 50 48 48 48 44 43 44 44 43 42 41 40 38 37 34 34 55 53
36 72 59 32 34 34 32 28 32 36 39 44 46 52 73 83 83 91 70 67 60 56 60 56 55 52 47 45 44 44 44 49 47 44 42 40 38 38 37 37 36 35 38
25 38 63 32 31 32 31 31 28 29 31 34 38 50 88 52 53 58 56 50 47 43 44 43 42 44 43 45 44 43 46 44 45 45 42 42 42 41 41 38 37 37 37
26 28 30 26 28 32 33 32 32 30 28 28 31 60 100 52 39 44 45 44 41 40 38 41 38 37 38 39 42 44 45 47 46 44 43 42 42 42 42 42 41 41 41
34 30 30 28 30 53 40 33 33 33 31 30 29 42 53 46 36 36 40 41 41 39 36 36 39 36 36 37 37 38 40 42 43 43 42 43 41 41 41 43 42 42 41
43 42 39 35 32 34 35 38 36 58 38 32 35 32 36 38 38 38 37 37 39 40 40 39 39 37 36 37 37 37 38 37 35 34 40 40 40 45 41 40 38 40 40
85 86 86 87 82 76 62 56 51 48 46 44 42 40 36 38 37 37 37 37 37 38 40 40 40 42 43 44 42 39 52 85 55 68 37 39 41 43 37 34 37 37 37
74 85 90 92 95 93 91 88 86 84 85 81 77 68 64 64 60 61 65 62 54 45 43 40 41 44 47 54 79 94 99 99 79 97 55 46 44 40 38 40 39 35 36

GFSGL_sfc_rhum_033.txt.gz
RH
61 73 77 75 72 69 68 68 63 63 58 54 54 55 55 55 56 63 61 55 60 73 77 67 68 74 56 53 56 86 94 91 92 98 94 87 87 82 76 82 74 74 89
64 70 74 67 66 66 60 58 56 56 52 49 48 48 45 46 54 57 58 53 63 73 72 67 59 60 64 76 75 87 93 87 93 91 90 90 88 86 90 96 96 85 91
52 58 60 66 60 64 58 58 54 52 48 44 42 42 41 43 49 55 58 58 64 63 77 71 54 65 72 76 63 80 87 90 90 73 94 96 98 91 97 97 97 98 96
45 50 60 66 63 57 56 55 51 46 45 43 43 38 39 42 49 54 58 62 70 70 72 72 51 62 67 69 74 77 82 88 86 80 96 98 97 99 96 98 99 98 99
42 46 52 53 52 51 51 50 47 46 43 39 41 50 46 52 49 63 62 68 69 78 80 62 61 70 80 79 72 82 83 90 76 94 96 98 98 99 98 98 98 98 99
39 41 42 43 44 49 51 59 49 44 51 56 61 51 56 53 100 100 90 67 68 79 72 68 75 84 88 95 96 96 86 82 83 82 94 96 98 98 98 98 96 98 99
37 37 39 41 54 63 61 58 47 66 70 68 64 48 64 74 100 100 100 76 77 81 75 75 59 63 74 68 94 91 95 88 80 80 90 92 96 94 95 95 90 84 94
34 36 38 44 53 55 57 47 69 72 66 65 58 61 70 80 100 100 100 80 82 82 80 77 72 72 72 71 70 72 72 76 77 74 79 85 86 89 87 84 86 92 90
38 42 46 46 51 48 44 56 75 62 68 67 62 63 69 81 100 100 89 88 94 92 79 78 77 72 97 95 73 81 83 88 94 96 97 97 99 97 87 80 89 89 95
44 37 32 33 51 47 49 72 69 59 59 53 63 67 91 80 100 100 96 94 92 97 94 83 100 80 100 100 84 85 92 90 84 87 91 95 94 96 92 80 79 88 91
42 32 43 42 41 52 65 80 68 55 58 72 67 71 82 82 92 100 100 89 89 83 90 85 74 100 100 99 93 83 90 85 93 88 91 90 94 95 85 83 79 85 80
31 39 52 59 45 49 56 55 54 79 67 69 70 67 78 81 98 99 100 96 93 77 82 82 96 100 100 100 91 100 100 91 85 89 91 94 94 97 90 83 81 65 59
37 49 48 57 55 49 60 64 60 57 49 60 74 66 78 80 94 100 100 100 96 76 76 92 100 100 100 98 100 100 95 84 87 90 90 90 87 82 81 84 83 78 69
40 55 52 58 60 56 49 70 75 82 77 75 84 82 75 89 90 80 78 83 93 82 97 97 98 98 96 94 92 85 75 76 77 82 82 78 75 75 86 79 72 61 51
41 53 44 37 60 57 83 80 75 85 85 78 87 81 68 83 86 85 79 69 72 88 89 81 85 82 83 86 84 85 74 75 74 73 76 69 66 69 61 58 54 47 44
44 38 34 34 37 51 50 61 99 96 100 100 100 80 59 90 100 100 100 98 99 100 73 71 71 67 68 67 67 79 71 77 73 70 70 60 61 55 55 52 44 43 41
48 40 30 39 44 50 41 45 58 83 100 100 100 100 92 99 100 100 100 100 100 96 75 62 59 57 64 79 82 75 65 66 67 56 56 50 52 45 46 40 37 35 35
40 52 30 34 32 47 60 48 46 52 54 63 92 94 99 100 100 100 100 94 74 80 70 64 53 50 50 63 56 64 55 62 53 58 56 47 42 36 38 36 36 37 36
30 26 27 30 35 36 54 63 54 47 50 55 68 88 94 100 100 100 100 60 60 59 57 53 60 64 69 72 57 59 56 61 56 50 46 40 37 37 38 37 34 51 48
31 59 57 27 28 27 31 59 60 62 48 46 49 65 82 85 86 86 75 69 61 55 55 49 50 53 57 53 48 56 61 63 41 39 38 38 37 36 33 32 30 31 36
24 27 62 26 24 25 23 25 29 34 45 52 45 56 93 57 65 65 65 66 60 51 50 48 46 43 39 39 52 48 51 58 47 39 37 37 38 37 37 35 33 32 33
23 24 25 23 23 25 27 25 24 23 24 31 42 62 96 64 42 45 46 58 53 45 38 45 51 48 47 44 39 39 39 39 39 38 38 37 37 38 38 38 38 38 37
25 23 22 22 26 40 28 26 27 25 23 24 36 43 48 44 49 34 36 35 36 36 41 44 37 39 32 32 33 35 38 38 39 39 40 40 38 38 38 39 38 39 40
55 49 44 37 48 28 27 31 42 49 66 49 38 36 36 34 32 41 49 51 40 32 32 33 32 30 31 35 39 41 45 48 34 33 39 40 38 41 38 37 36 37 39
78 77 73 66 58 58 54 56 57 55 55 59 61 52 50 55 55 59 59 55 65 77 84 76 73 74 65 72 71 78 94 99 81 94 42 40 39 41 37 35 36 37 38
78 86 90 89 90 84 80 78 76 73 72 68 66 64 63 63 64 63 63 62 61 58 58 58 59 62 61 63 72 92 96 96 88 99 69 54 48 44 40 40 38 34 36